Airfield :
LOGIN :

Register | Disclaimer

   EN    FR    IT 

 










Legend :    VFR   Marginal VFR   IFR   Intensive IFR   Very Intensive IFR
Visi :
Ceiling :
>= 8 km
>= 3000ft
5 to 8 km
1000 to 3000 ft
1500m to 5 km
500 to 1000 ft
800 to 1500m
200 to 500 ft
< 800m
< 200 ft
Symbols :   Thunderstorms  Fog  Heavy snow  Heavy precipitations  Wind > 20 kt
SIGMETs :     Misc.  Thunderstorms  Icing  Turbulence  Mountain Waves  Volcanic Ashes






- Airport Elevation : 49 ft
- IATA code : SEN


EGMC - Southend

CURRENT METAR :
  • 242320Z 29001KT CAVOK 10/08 Q1033

EXPIRED METARs :
  • 242250Z 34003KT CAVOK 11/08 Q1033
  • 242220Z 34003KT CAVOK 11/08 Q1033
  • 242150Z 33002KT CAVOK 12/09 Q1032
  • 242120Z 30003KT CAVOK 13/09 Q1032
  • 242050Z 35003KT CAVOK 13/09 Q1032

TAF TAF EGMC
Valid from the 24 at 21:00 until the 25 at 06:00 UTC


241957Z 2421/2506 VRB03KT 9999 FEW045



MET'MAP, your aeronautical weather chart ! - Copyright ORBIFLY December 2007 - Disclaimer

ORBIFLY MET'MAP TEAM :

Programming & Development : Alexandra Zaïnal
Concept & original design : Baudouin d'Aumeries
Assistance for programming : Marc-Olivier Méhu
Technical & hardware support : Manuel Goepfert

Contact : metmap@orbifly.com




SOURCES & CREDITS :

   NOAA